Weather History for KUIN - October, 2012

Change the Weather History Date:

Sunday, October 28, 2012

  Actual Average Record
Temperature  
Mean Temperature 40 °F 51 °F  
Max Temperature 50 °F 61 °F 85 °F (1927)
Min Temperature 29 °F 41 °F 17 °F (1925)
Degree Days  
Heating Degree Days 25 14  
Month to date heating degree days 321 290  
Since 1 July heating degree days 406 377  
Cooling Degree Days 0 0  
Month to date cooling degree days 21 14  
Year to date cooling degree days 1573 1090  
Moisture  
Dew Point 28 °F    
Average Humidity 67    
Maximum Humidity 85    
Minimum Humidity 49    
Precipitation  
Precipitation 0.00 in 0.10 in 1.66 in (1955)
Month to date precipitation 4.66 2.72  
Year to date precipitation 23.22 31.77  
Sea Level Pressure  
Sea Level Pressure 30.30 in    
Wind  
Wind Speed 7 mph (North)    
Max Wind Speed 13 mph    
Max Gust Speed 20 mph    
Visibility 10 miles    
Events      
T = Trace of Precipitation, MM = Missing Value Source: NWS Daily Summary

Daily Weather History Graph

Daily Weather History Graph

Search for Another Location

Airport or City:

Trip Planner

Search our weather history database for the weather conditions in past years. The results will help you decide how hot, cold, wet, or windy it might be!

Date:

Astronomy

Oct. 28, 2012 Rise Set
Actual Time 7:29 AM CDT 6:06 PM CDT
Civil Twilight 7:01 AM CDT 6:34 PM CDT
Nautical Twilight 6:30 AM CDT 7:06 PM CDT
Astronomical Twilight 5:58 AM CDT 7:37 PM CDT
Moon 5:24 PM CDT (10/28) 6:23 AM CDT (10/28)
Length of Visible Light 11h 32m
Length of Day
10h 36m
Waxing Gibbous, 99% of the Moon is Illuminated
Oct 28
Waxing Gibbous
Oct 29
Full
Nov 6
Last Quarter
Nov 13
New
Nov 20
First Quarter

Hourly Weather History & Observations

Time (CDT) Temp. Windchill Dew Point Humidity Pressure Visibility Wind Dir Wind Speed Gust Speed Precip Events Conditions
12:54 AM 35.1 °F 29.3 °F 27.0 °F 72% 30.31 in 10.0 mi North 6.9 mph - N/A   Clear
1:54 AM 34.0 °F 28.8 °F 28.0 °F 79% 30.30 in 10.0 mi North 5.8 mph - N/A   Clear
2:54 AM 33.1 °F 28.7 °F 27.0 °F 78% 30.30 in 10.0 mi North 4.6 mph - N/A   Clear
3:54 AM 33.1 °F 27.7 °F 27.0 °F 78% 30.30 in 10.0 mi North 5.8 mph - N/A   Clear
4:54 AM 32.0 °F 25.6 °F 26.1 °F 79% 30.30 in 10.0 mi North 6.9 mph - N/A   Clear
5:54 AM 30.0 °F 24.1 °F 26.1 °F 85% 30.30 in 10.0 mi NNE 5.8 mph - N/A   Clear
6:54 AM 28.9 °F 22.8 °F 25.0 °F 85% 30.31 in 10.0 mi NNE 5.8 mph - N/A   Clear
7:54 AM 30.0 °F 24.1 °F 25.0 °F 82% 30.32 in 9.0 mi NNE 5.8 mph - N/A   Clear
8:54 AM 34.0 °F 27.2 °F 27.0 °F 75% 30.34 in 10.0 mi North 8.1 mph - N/A   Clear
9:54 AM 37.9 °F 31.5 °F 27.0 °F 65% 30.34 in 10.0 mi NNE 9.2 mph - N/A   Clear
10:54 AM 42.1 °F 36.6 °F 28.0 °F 58% 30.33 in 10.0 mi North 9.2 mph 19.6 mph N/A   Clear
11:54 AM 45.0 °F 40.1 °F 28.0 °F 52% 30.32 in 10.0 mi North 9.2 mph - N/A   Scattered Clouds
12:54 PM 46.9 °F - 28.9 °F 50% 30.30 in 10.0 mi NNW 6.9 mph - N/A   Partly Cloudy
1:54 PM 48.0 °F - 30.0 °F 50% 30.28 in 10.0 mi NNE 5.8 mph - N/A   Mostly Cloudy
2:54 PM 48.0 °F - 32.0 °F 54% 30.27 in 10.0 mi North 9.2 mph - N/A   Mostly Cloudy
3:54 PM 48.0 °F - 33.1 °F 56% 30.28 in 10.0 mi NE 9.2 mph - N/A   Scattered Clouds
4:54 PM 48.0 °F - 33.1 °F 56% 30.27 in 10.0 mi NNW 6.9 mph - N/A   Scattered Clouds
5:54 PM 44.1 °F 40.8 °F 33.1 °F 65% 30.28 in 10.0 mi North 5.8 mph - N/A   Partly Cloudy
6:54 PM 39.9 °F 35.8 °F 30.9 °F 70% 30.28 in 10.0 mi NNW 5.8 mph - N/A   Clear
7:54 PM 37.9 °F 32.7 °F 30.0 °F 73% 30.29 in 10.0 mi NNW 6.9 mph - N/A   Clear
8:54 PM 37.0 °F 31.6 °F 28.0 °F 70% 30.29 in 10.0 mi North 6.9 mph - N/A   Clear
9:54 PM 36.0 °F 31.1 °F 28.0 °F 73% 30.31 in 10.0 mi NNE 5.8 mph - N/A   Clear
10:54 PM 34.0 °F 28.8 °F 27.0 °F 75% 30.31 in 10.0 mi NNE 5.8 mph - N/A   Clear
11:54 PM 34.0 °F 29.8 °F 27.0 °F 75% 30.31 in 10.0 mi NNE 4.6 mph - N/A   Clear